Weather History for Cut Bank, MT

Change the Weather History Date:

Monday, December 10, 2012

  Actual Average Record
Temperature  
Mean Temperature 26 °F 23 °F  
Max Temperature 35 °F 33 °F 62 °F (1921)
Min Temperature 17 °F 13 °F -23 °F (2000)
Degree Days  
Heating Degree Days 39 42  
Month to date heating degree days 356 414  
Since 1 July heating degree days 2496 2677  
Cooling Degree Days 0 0  
Month to date cooling degree days 0 0  
Year to date cooling degree days 210 162  
Moisture  
Dew Point 17 °F    
Average Humidity 61    
Maximum Humidity 75    
Minimum Humidity 47    
Precipitation  
Precipitation 0.00 in 0.00 in 0.21 in (1909)
Month to date precipitation 0.05 0.07  
Year to date precipitation 9.04 10.75  
Snow  
Snow 0.00 in - - ()
Snow Depth 1.00 in    
Sea Level Pressure  
Sea Level Pressure 29.93 in    
Wind  
Wind Speed 21 mph (West)    
Max Wind Speed 32 mph    
Max Gust Speed 38 mph    
Visibility 10 miles    
Events      
T = Trace of Precipitation, MM = Missing Value Source: NWS Daily Summary

Daily Weather History Graph

Daily Weather History Graph

Search for Another Location

Airport:

Trip Planner

Search our weather history database for the weather conditions in past years. The results will help you decide how hot, cold, wet, or windy it might be!

Date:

Astronomy

Dec. 10, 2012 Rise Set
Actual Time 8:11 AM MST 4:33 PM MST
Civil Twilight 7:34 AM MST 5:10 PM MST
Nautical Twilight 6:54 AM MST 5:50 PM MST
Astronomical Twilight 6:16 AM MST 6:28 PM MST
Moon 4:50 AM MST (12/10) 2:33 PM MST (12/10)
Length of Visible Light 9h 35m
Length of Day
8h 22m
Waning Crescent, 10% of the Moon is Illuminated
Dec 10
Waning Crescent
Dec 13
New
Dec 19
First Quarter
Dec 28
Full
Jan 4
Last Quarter

Hourly Weather History & Observations

Time (MST) Temp. Windchill Dew Point Humidity Pressure Visibility Wind Dir Wind Speed Gust Speed Precip Events Conditions
12:56 AM 26.1 °F 10.4 °F 15.1 °F 63% 29.86 in - West 26.5 mph - N/A   Clear
1:56 AM 25.0 °F 9.2 °F 14.0 °F 63% 29.88 in - West 25.3 mph 32.2 mph N/A   Clear
2:56 AM 26.1 °F 11.0 °F 16.0 °F 66% 29.89 in - West 24.2 mph 28.8 mph N/A   Clear
3:56 AM 28.0 °F 13.0 °F 17.1 °F 63% 29.88 in - West 26.5 mph 33.4 mph N/A   Overcast
4:56 AM 26.1 °F 12.0 °F 16.0 °F 66% 29.93 in - West 20.7 mph - N/A   Overcast
5:56 AM 25.0 °F 13.6 °F 16.0 °F 69% 29.95 in - West 12.7 mph - N/A   Mostly Cloudy
6:56 AM 17.1 °F 5.8 °F 10.9 °F 77% 29.99 in - WNW 9.2 mph - N/A   Partly Cloudy
7:56 AM 23.0 °F 10.1 °F 15.1 °F 72% 29.97 in - West 15.0 mph - N/A   Partly Cloudy
8:56 AM 25.0 °F 13.1 °F 15.1 °F 66% 29.99 in - West 13.8 mph - N/A   Clear
9:56 AM 28.9 °F 14.8 °F 18.0 °F 64% 29.97 in - West 24.2 mph 32.2 mph N/A   Scattered Clouds
10:56 AM 30.9 °F 16.9 °F 19.0 °F 61% 29.97 in - West 26.5 mph 32.2 mph N/A   Clear
11:56 AM 33.1 °F 20.1 °F 19.9 °F 59% 29.96 in 10.0 mi WSW 25.3 mph - N/A   Clear
12:56 PM 35.1 °F 22.5 °F 17.1 °F 48% 29.94 in 10.0 mi West 26.5 mph - N/A   Clear
1:56 PM 34.0 °F 20.5 °F 18.0 °F 52% 29.93 in 10.0 mi West 28.8 mph 34.5 mph N/A   Clear
2:56 PM 33.1 °F 20.3 °F 17.1 °F 52% 29.93 in 10.0 mi West 24.2 mph 32.2 mph N/A   Clear
3:56 PM 30.0 °F 17.5 °F 18.0 °F 61% 29.95 in 10.0 mi West 19.6 mph - N/A   Clear
4:56 PM 27.0 °F 13.5 °F 17.1 °F 66% 29.96 in 10.0 mi West 19.6 mph - N/A   Clear
5:56 PM 26.1 °F 12.7 °F 16.0 °F 66% 29.97 in 10.0 mi West 18.4 mph - N/A   Clear
6:56 PM 26.1 °F 13.1 °F 17.1 °F 69% 29.98 in 10.0 mi West 17.3 mph - N/A   Clear
7:56 PM 25.0 °F 12.2 °F 17.1 °F 72% 29.96 in 10.0 mi West 16.1 mph - N/A   Clear
8:56 PM 27.0 °F 12.8 °F 19.0 °F 72% 29.94 in 10.0 mi WSW 21.9 mph - N/A   Clear
9:56 PM 28.0 °F 13.9 °F 19.9 °F 72% 29.90 in 10.0 mi West 23.0 mph - N/A   Clear
10:56 PM 28.9 °F 15.1 °F 19.9 °F 69% 29.87 in 10.0 mi WSW 23.0 mph - N/A   Clear
11:56 PM 30.0 °F 16.6 °F 19.9 °F 66% 29.83 in 10.0 mi WSW 23.0 mph - N/A   Clear